Flag for France Weather past 2 weeks in Strasbourg, France

Now
64 °F

Cloudy.


Feels Like: 64 °F
Forecast: 64 / 78 °F
Wind: 3 mph from Southwest

Location: Strasbourg Airport

Current Time: Jul 29, 2014 at 2:11:35 PM

Latest Report: Jul 29, 2014 at 1:30 PM


Visibility: N/A

Pressure: 29.83 "Hg

Humidity: 94%

Dew point: 63 °F

Location of StrasbourgLocation

Historic Weather in Strasbourg — Graph

°F

Strasbourg temperature yesterday

Maximum temperature yesterday: 79 °F (at 2:30 PM)
Minimum temperature yesterday: 63 °F (at 5:30 AM)
Average temperature yesterday: 68 °F

Past Weeks' High & Low Weather Summary

 TemperatureHumidityPressure
High93 °F (Jul 19, 5:30 PM)100% (Jul 21, 1:30 AM)30.18 "Hg (Jul 21, 1:30 AM)
Low32 °F (Jul 26, 8:30 AM)29% (Jul 18, 4:00 PM)29.80 "Hg (Jul 19, 11:30 PM)
Average71 °F73%29.97 "Hg
* Reported Jul 14 1:00 PM — Jul 29 1:00 PM, Strasbourg, Weather by CustomWeather, © 2014

Note: Actual official high and low records may vary slightly from our data, if they occured in-between our weather recording intervals... More about our weather records

Advertising

Strasbourg weather history for previous 24 hours

 ConditionsComfort  
Time TempWeatherWind HumidityBarometerVisibility
1:00 PM
Jul 29
63 °FCloudy.3 mph94%29.83 "HgN/A
12:30 PM63 °FLight rain. Low clouds.3 mph94%29.83 "Hg6 mi
12:00 PM63 °FLight rain. Partly sunny.5 mph94%29.83 "HgN/A
11:30 AM63 °FLight rain. Partly sunny.3 mph94%29.83 "HgN/A
11:00 AM63 °FMore clouds than sun.5 mph94%29.83 "HgN/A
10:30 AM63 °FMore clouds than sun.6 mph94%29.80 "HgN/A
10:00 AM63 °FLow clouds.5 mph94%29.80 "HgN/A
9:30 AM63 °FMore clouds than sun.3 mph94%29.83 "HgN/A
9:00 AM63 °FMore clouds than sun.5 mph94%29.83 "HgN/A
8:30 AM61 °FMore clouds than sun.5 mph100%29.80 "HgN/A
8:00 AM61 °FLow clouds.3 mph100%29.80 "HgN/A
7:30 AM61 °FMostly cloudy.3 mph100%29.80 "HgN/A
7:00 AM61 °FMostly cloudy.2 mph100%29.80 "HgN/A
6:30 AM61 °FDrizzle. Mostly cloudy.3 mph94%29.80 "Hg5 mi
6:00 AM61 °FLight rain. Fog.3 mph94%29.83 "Hg2 mi
5:30 AM61 °FLight rain. Fog.3 mph94%29.83 "Hg2 mi
4:30 AM61 °FPassing clouds.6 mph94%29.83 "HgN/A
4:00 AM61 °FOvercast.7 mph94%29.83 "HgN/A
3:30 AM61 °FMostly cloudy.5 mph94%29.83 "HgN/A
3:00 AM63 °FOvercast.3 mph94%29.83 "HgN/A
2:30 AM63 °FOvercast.2 mph94%29.83 "HgN/A
2:00 AM63 °FOvercast.No wind94%29.86 "HgN/A
1:30 AM61 °FOvercast.No wind94%29.86 "HgN/A
1:00 AM63 °FOvercast.2 mph94%29.86 "HgN/A
12:30 AM63 °FDrizzle. Mostly cloudy.2 mph94%29.86 "HgN/A
12:00 AM63 °FLight rain. Mostly cloudy.2 mph94%29.86 "HgN/A
11:30 PM
Jul 28
63 °FLight rain. Overcast.5 mph94%29.86 "HgN/A
11:00 PM63 °FLight rain. Partly cloudy.5 mph94%29.86 "HgN/A
10:30 PM63 °FRain. Passing clouds.3 mph94%29.89 "Hg4 mi
10:00 PM63 °FMostly cloudy.3 mph100%29.89 "HgN/A
9:30 PM63 °FMostly cloudy.No wind94%29.89 "HgN/A
9:00 PM63 °FPartly sunny.2 mph94%29.86 "HgN/A
8:30 PM63 °FScattered clouds.5 mph94%29.86 "HgN/A
8:00 PM63 °FLight rain. Partly sunny.1 mph94%29.86 "HgN/A
7:30 PM63 °FThundershowers. Cloudy.10 mph94%29.83 "Hg4 mi
7:00 PM63 °FStrong thunderstorms. Fog.16 mph94%29.83 "Hg2 mi
6:30 PM64 °FHeavy rain. Fog.10 mph88%29.86 "Hg1 mi
6:00 PM66 °FThunderstorms. Broken clouds.18 mph83%29.83 "HgN/A
5:30 PM68 °FThunderstorms. Overcast.18 mph83%29.80 "HgN/A
5:00 PM72 °FMostly cloudy.16 mph73%29.80 "HgN/A
4:30 PM79 °FPartly sunny.3 mph61%29.80 "HgN/A
4:00 PM79 °FMostly cloudy.2 mph61%29.80 "HgN/A
3:30 PM79 °FWarm.3 mph61%29.80 "HgN/A
3:00 PM79 °FClear.3 mph65%29.83 "HgN/A
2:30 PM79 °FWarm.2 mph58%29.83 "HgN/A
2:00 PM77 °FWarm.2 mph61%29.83 "HgN/A
Weather by CustomWeather, © 2014

See weather overviewHow to use our weather pages